{"data":{"norad_id":54153,"epoch":"2026-09-17T23:47:21.096960Z","epoch_age_seconds":375583,"freshness":"STALE","line1":"1 54153U 22139D   26260.99121640  .00000033  00000+0  00000+0 0  9997","line2":"2 54153  89.9445  96.6341 0007799 163.2164 196.8794  5.00428432 68751","mean_motion":5.00428432,"eccentricity":0.0007799,"inclination_deg":89.9445,"raan_deg":96.6341,"arg_perigee_deg":163.2164,"mean_anomaly_deg":196.8794,"bstar":0,"rev_number":6875,"period_min":287.75343444115,"perigee_km":8048.6078855546,"apogee_km":8071.1282858873,"semimajor_km":14438.005085721,"source":"CELESTRAK","updated_at":"2026-09-21T09:00:09.410147Z"}}